International Virtual Aviation Organisation

Russian Federation and Kazakhstan MCD

 

Карточка аэропорта UHMM

Внимание!
Информация на этой странице в стадии наполнения.
Если вы не увидели какой-то информации, или заметили неточность - пожалуйста сообщите нам!
Спасибо!
Команда RU-STAFF
Название аэропортаСокол
Название аэропорта (англ.)Sokol
Превышение574 ft. (175 m.)
Координаты59°54.666', 150°43.26'
Высота перехода2150m
Эшелон переходаQFE>=733mm:FL090; QFE<733:FL100
Коды ответчика6540-6577
Зона ОрВДМагадан РПИ (UHMM)
Данные METARUHMM 140730Z 32003MPS 9999 FEW040 M05/M12 Q0994 R10/70D NOSIG RMK QFE731
Проноз погоды (TAF)UHMM 140458Z 1406/1512 34003G08MPS 9999 SCT040 SCT070 TEMPO 1406/1410 30003G08MPS
NOTAMshow/hide NOTAM
AWOS   TABLE

Информация о ВПП


Диспетчерские позиции

Позывной Наименование органа УВД Частота
UHMM_APPМагадан-Подход119.3
UHMM_TWRМагадан-Вышка120.8



Спутниковое изображение